Temp
64 64 64 65 64 64 64 64 64 64 65 65 64 65 65 65 65 62 54 63 65 73 71 66 66 64 63 58 61 59 45 43 48 50 56 62 61 68 71 65 66 68 67 71 72
64 64 64 64 64 64 64 64 64 64 64 64 65 65 64 64 62 57 65 71 73 74 63 60 57 60 54 55 57 52 46 48 55 58 57 61 62 64 63 62 61 64 70 71 71
65 64 64 64 64 64 64 63 63 63 64 64 64 64 64 64 56 55 70 72 73 72 65 62 60 58 51 53 52 52 48 55 58 62 62 60 59 65 62 58 63 63 64 67 67
65 65 64 65 64 64 63 63 63 63 63 63 63 64 63 59 42 60 71 73 73 69 64 60 55 50 48 48 54 47 55 58 59 62 60 57 62 60 61 63 68 68 68 67 69
65 65 64 64 64 63 63 63 63 63 63 63 63 63 58 48 50 65 71 71 67 65 59 56 51 50 46 49 51 48 52 58 61 61 62 63 59 60 61 67 68 68 69 68 68
65 64 64 64 64 63 63 63 63 63 63 63 63 62 53 42 62 65 65 64 65 62 57 57 54 55 50 49 48 52 54 55 59 60 61 59 60 59 63 66 65 67 67 66 67
65 64 63 63 63 63 63 63 63 63 63 63 63 60 50 48 63 62 64 62 64 63 58 59 58 53 53 49 54 53 47 51 54 56 56 61 55 56 63 64 64 63 66 64 65
65 64 63 63 63 63 63 63 62 62 62 62 63 55 44 62 63 61 62 60 63 64 62 63 64 56 55 56 50 45 44 39 51 55 57 57 47 59 63 60 60 62 62 61 65
64 64 63 62 62 62 62 62 61 61 62 62 54 49 43 64 56 61 61 58 60 60 61 67 61 53 51 46 41 40 33 38 44 55 55 54 50 60 63 59 59 59 59 60 60
64 63 63 62 61 61 61 61 61 59 59 61 59 47 51 51 58 60 61 61 56 55 54 53 50 41 41 42 34 38 35 38 39 48 52 51 51 55 59 58 59 62 58 57 59
63 62 62 61 61 60 58 52 46 45 49 46 49 48 54 58 61 57 60 57 54 48 39 45 38 36 39 42 42 40 38 37 42 50 47 48 50 55 59 57 55 57 56 55 57
62 62 62 61 61 60 53 46 48 50 41 50 51 52 57 59 51 55 60 48 46 39 42 41 36 44 45 44 42 40 37 37 43 49 49 46 46 54 58 60 60 61 56 55 55
62 62 61 60 60 55 50 50 54 52 40 46 49 49 51 55 49 51 55 50 43 40 42 38 41 47 44 41 39 38 36 37 37 45 48 47 43 48 55 60 61 63 59 58 58
61 61 61 59 53 50 50 54 53 55 34 38 42 49 51 53 45 58 59 53 46 39 41 40 45 43 42 40 40 34 44 43 41 38 32 45 34 44 52 54 57 61 53 57 57
60 61 59 59 49 48 52 53 53 51 14 41 43 55 52 47 48 48 60 53 41 40 40 36 38 39 37 40 44 38 46 43 42 38 35 38 34 43 51 49 54 60 53 57 58
57 60 58 56 53 54 54 54 50 28 17 36 43 41 41 44 46 49 49 54 49 42 43 41 48 44 43 46 46 45 42 41 39 39 29 37 37 39 44 50 54 57 56 57 57
57 59 57 58 50 55 54 48 29 17 40 35 37 40 41 40 42 43 41 39 36 32 30 36 37 43 46 41 45 43 36 26 23 24 25 39 36 40 48 52 58 60 54 55 57
55 57 57 57 55 55 50 39 21 34 34 43 41 41 36 41 39 41 38 35 40 36 33 30 27 36 44 42 38 38 37 27 18 18 26 42 33 39 52 57 60 59 59 55 54
53 54 52 53 55 53 43 31 30 35 40 39 39 34 34 38 39 38 37 36 41 39 31 29 29 42 43 46 46 35 32 41 32 33 31 35 39 48 54 52 52 58 55 53 53
52 51 50 55 55 49 38 33 36 43 42 42 34 36 33 36 35 35 35 39 40 41 41 35 25 39 41 44 44 39 43 30 29 23 21 33 36 42 50 50 49 50 51 52 53
49 46 51 55 53 43 33 35 41 45 45 40 37 36 37 33 35 34 34 40 41 40 41 38 33 33 37 34 36 36 33 37 36 33 30 29 36 48 52 53 50 51 52 51 51
49 37 51 52 40 39 35 41 46 43 45 43 42 40 38 37 33 31 33 40 46 45 35 41 35 28 33 44 45 41 38 38 31 30 35 34 36 54 53 55 54 52 53 52 53
46 44 51 51 34 35 41 42 44 42 43 41 40 42 43 38 34 36 39 49 48 46 42 42 34 28 30 35 39 36 39 42 42 37 34 31 37 51 49 50 53 52 51 52 51
45 39 43 45 45 40 39 39 39 46 44 44 42 44 41 38 41 39 41 47 48 48 47 43 36 32 29 34 39 35 38 42 41 35 36 33 38 47 46 49 49 49 51 51 51
46 41 44 36 39 42 42 42 39 38 43 44 39 40 40 35 38 37 43 45 47 47 44 39 32 34 36 37 38 42 41 42 40 40 35 40 42 50 51 51 50 51 50 50 50
43 42 45 42 44 42 41 39 40 42 42 39 38 43 41 37 40 37 43 44 41 43 41 40 32 35 36 41 39 40 44 44 43 39 37 38 37 54 48 49 47 49 51 51 51
47 47 47 43 42 39 39 41 41 45 44 46 44 42 40 42 47 47 49 50 48 43 39 38 35 34 34 41 41 37 42 43 43 42 39 34 44 50 48 51 48 47 53 52 52
MSLP
1016.36 1016.25 1016.24 1016.23 1016.10 1016.02 1015.91 1015.78 1015.57 1015.42 1015.23 1015.17 1015.09 1014.96 1014.85 1015.06 1015.32 1015.56 1015.43 1014.47 1014.14 1013.81 1013.84 1013.82 1013.65 1013.78 1013.69 1013.91 1013.86 1014.09 1014.59 1014.02 1013.40 1012.74 1011.26 1010.24 1009.81 1008.85 1008.41 1008.13 1007.90 1007.97 1008.38 1008.07 1008.20
1016.02 1015.97 1016.02 1016.01 1015.97 1015.81 1015.87 1015.78 1015.42 1015.24 1015.16 1015.13 1015.15 1014.95 1014.98 1015.12 1015.33 1014.94 1014.11 1013.93 1013.80 1013.64 1014.07 1014.10 1014.15 1014.27 1014.30 1014.10 1014.05 1014.12 1013.68 1012.74 1012.06 1011.54 1010.70 1010.23 1010.07 1009.44 1009.05 1008.68 1008.33 1008.11 1008.15 1008.12 1008.51
1015.62 1015.63 1015.70 1015.79 1015.72 1015.60 1015.56 1015.66 1015.29 1015.14 1015.24 1015.15 1015.25 1015.11 1015.07 1015.15 1015.27 1013.79 1013.05 1013.18 1013.43 1013.69 1014.09 1014.27 1014.38 1014.58 1014.64 1014.26 1014.01 1013.42 1012.48 1012.27 1011.57 1011.06 1010.71 1010.20 1010.13 1009.65 1009.20 1009.01 1008.59 1008.36 1008.63 1008.66 1008.98
1015.11 1015.27 1015.31 1015.34 1015.43 1015.42 1015.30 1015.40 1015.25 1015.17 1015.29 1015.21 1015.21 1015.19 1015.08 1015.40 1014.97 1013.04 1012.78 1012.43 1012.60 1013.46 1014.12 1014.33 1014.53 1014.73 1014.75 1014.40 1013.80 1013.40 1012.36 1012.13 1011.61 1011.15 1010.87 1010.57 1010.03 1009.79 1009.41 1008.94 1008.31 1008.24 1008.45 1008.66 1008.94
1014.53 1014.79 1014.92 1015.02 1015.04 1015.08 1015.10 1015.12 1015.15 1015.04 1015.24 1015.26 1015.21 1015.29 1015.38 1015.35 1014.21 1013.00 1012.74 1012.71 1012.75 1013.28 1014.05 1014.47 1014.64 1014.62 1014.58 1014.29 1013.95 1013.29 1012.73 1012.13 1011.63 1011.26 1010.87 1010.51 1010.11 1009.91 1009.25 1008.96 1008.55 1008.30 1008.24 1008.39 1008.49
1014.06 1014.21 1014.47 1014.68 1014.76 1014.79 1014.84 1014.90 1014.90 1015.00 1015.03 1015.22 1015.30 1015.22 1015.44 1015.13 1013.06 1012.88 1012.97 1012.97 1013.17 1013.53 1013.95 1014.26 1014.21 1014.25 1014.45 1014.25 1014.05 1013.05 1012.79 1012.23 1011.60 1011.10 1010.79 1010.52 1009.80 1009.75 1008.93 1008.75 1008.73 1008.42 1008.22 1008.10 1008.22
1013.40 1013.70 1013.94 1014.20 1014.43 1014.54 1014.63 1014.66 1014.77 1014.90 1014.90 1015.12 1015.21 1015.49 1015.30 1013.95 1012.75 1012.63 1013.12 1013.28 1013.24 1013.53 1013.74 1013.81 1014.04 1014.29 1014.16 1014.15 1013.72 1013.38 1013.00 1012.15 1011.51 1011.09 1010.68 1010.53 1009.15 1008.54 1008.83 1008.54 1008.32 1008.31 1008.03 1008.01 1008.07
1012.86 1013.03 1013.41 1013.82 1014.05 1014.20 1014.39 1014.46 1014.58 1014.87 1014.90 1015.05 1015.06 1015.36 1014.79 1012.98 1012.68 1012.95 1012.79 1013.07 1013.05 1013.21 1013.44 1013.55 1013.80 1014.16 1014.16 1014.09 1013.88 1013.77 1013.32 1012.55 1011.10 1010.92 1010.62 1010.72 1006.69 1008.15 1008.26 1008.38 1008.42 1008.26 1008.16 1008.13 1008.06
1012.21 1012.44 1012.78 1013.27 1013.68 1013.92 1014.12 1014.29 1014.58 1014.77 1014.81 1014.91 1015.14 1015.31 1013.97 1012.64 1012.61 1012.35 1012.75 1013.09 1012.93 1013.07 1013.24 1013.32 1013.68 1014.05 1014.22 1014.51 1014.65 1014.22 1013.56 1012.62 1011.73 1010.81 1010.61 1009.99 1007.12 1008.13 1008.01 1008.20 1008.11 1007.94 1007.89 1008.04 1008.14
1011.53 1011.86 1012.22 1012.70 1013.20 1013.66 1013.89 1014.24 1014.53 1014.78 1014.76 1014.70 1014.73 1015.24 1013.46 1012.52 1012.07 1012.01 1012.37 1012.82 1013.14 1013.29 1013.51 1013.68 1014.05 1014.34 1014.67 1014.81 1013.76 1013.99 1013.69 1012.75 1012.21 1011.43 1010.75 1009.87 1007.87 1008.37 1007.98 1007.75 1007.66 1007.57 1007.50 1007.80 1008.03
1010.81 1011.12 1011.61 1012.19 1012.72 1013.30 1013.95 1014.62 1015.17 1015.12 1014.51 1013.71 1013.52 1013.07 1012.53 1012.08 1011.85 1012.03 1012.33 1012.84 1013.34 1013.84 1014.18 1014.22 1014.67 1014.36 1014.52 1014.42 1014.37 1014.24 1013.79 1013.15 1012.84 1012.14 1011.47 1010.23 1008.79 1008.15 1007.89 1007.33 1007.21 1007.06 1007.34 1007.55 1007.84
1010.01 1010.49 1011.00 1011.69 1012.34 1012.93 1013.59 1013.93 1013.55 1013.36 1013.65 1013.30 1013.14 1012.95 1012.42 1012.41 1012.27 1012.11 1012.36 1013.27 1013.62 1013.99 1014.52 1014.95 1014.10 1014.13 1014.24 1014.50 1014.59 1014.52 1014.07 1013.21 1013.16 1012.61 1011.71 1010.55 1008.78 1008.05 1006.96 1006.17 1006.49 1006.35 1006.83 1007.16 1007.77
1009.41 1009.66 1010.33 1011.19 1012.03 1012.92 1013.26 1013.29 1013.16 1013.25 1013.62 1013.00 1012.60 1012.54 1012.46 1012.57 1012.26 1012.02 1012.42 1012.72 1013.22 1013.93 1014.29 1014.20 1013.74 1013.61 1013.95 1014.17 1014.42 1014.07 1013.81 1013.91 1013.65 1012.97 1011.43 1011.04 1008.40 1007.56 1006.01 1005.79 1005.62 1005.32 1005.75 1006.34 1006.91
1008.83 1008.91 1009.84 1010.99 1012.48 1012.56 1012.93 1013.00 1013.17 1013.47 1013.67 1012.90 1012.46 1011.96 1012.10 1012.18 1012.07 1011.60 1011.64 1012.23 1013.15 1013.56 1014.17 1013.98 1013.90 1013.57 1013.53 1013.70 1014.00 1013.27 1013.36 1013.66 1013.63 1013.53 1012.34 1010.96 1008.35 1006.42 1005.35 1004.89 1004.90 1004.73 1005.50 1005.83 1006.62
1008.20 1008.47 1009.29 1010.09 1010.94 1011.88 1011.87 1012.66 1013.13 1013.97 1013.73 1012.40 1012.27 1012.12 1012.06 1012.17 1011.86 1011.58 1011.24 1011.69 1012.47 1013.22 1013.79 1013.14 1013.06 1013.14 1013.07 1012.73 1013.21 1013.02 1013.23 1013.33 1013.35 1013.06 1012.59 1010.87 1010.27 1005.73 1005.48 1004.13 1003.47 1003.43 1004.45 1005.00 1005.70
1007.75 1007.81 1008.78 1009.85 1010.43 1010.97 1011.64 1012.42 1013.51 1014.39 1012.68 1012.04 1012.02 1012.24 1012.37 1012.10 1011.80 1011.69 1011.65 1011.95 1012.45 1012.99 1012.97 1012.83 1012.64 1012.50 1011.82 1011.92 1012.44 1012.78 1013.23 1013.33 1013.26 1013.11 1011.37 1008.90 1009.34 1004.80 1004.11 1002.96 1002.76 1002.96 1003.52 1004.29 1005.38
1006.89 1007.06 1008.21 1008.94 1009.54 1010.69 1011.68 1012.68 1013.72 1013.13 1011.49 1011.74 1011.68 1012.01 1012.01 1011.77 1011.70 1011.56 1011.70 1012.10 1012.38 1012.77 1012.59 1012.69 1012.53 1012.50 1011.96 1011.85 1012.16 1012.78 1013.35 1013.28 1013.10 1012.39 1009.32 1007.83 1007.63 1004.37 1002.87 1002.23 1001.56 1001.66 1002.73 1003.85 1004.97
1006.55 1006.16 1007.44 1008.41 1008.83 1010.24 1011.53 1012.42 1012.38 1010.70 1010.84 1010.88 1011.13 1011.54 1011.55 1011.39 1011.49 1011.31 1011.61 1011.85 1012.21 1012.43 1012.31 1012.04 1012.09 1011.78 1011.42 1011.10 1011.23 1011.69 1012.23 1012.08 1011.56 1010.53 1009.06 1007.80 1005.01 1002.45 1001.77 1000.80 1001.02 1001.39 1001.91 1003.13 1004.63
1006.00 1005.31 1007.11 1008.38 1008.88 1009.89 1011.10 1011.30 1010.01 1009.73 1009.78 1010.35 1011.02 1011.15 1011.05 1011.07 1011.21 1011.39 1011.31 1011.21 1011.03 1011.59 1012.04 1011.78 1011.41 1010.86 1010.81 1010.67 1011.01 1011.42 1011.23 1010.58 1011.24 1010.08 1008.89 1006.03 1003.26 1001.57 1000.67 1000.02 1000.12 1000.35 1001.70 1002.77 1003.97
1005.03 1005.02 1006.47 1007.70 1008.76 1009.90 1010.71 1009.92 1009.37 1009.04 1009.54 1009.93 1010.10 1010.38 1010.34 1010.48 1011.13 1011.33 1010.89 1009.78 1009.93 1010.32 1010.92 1011.24 1011.14 1010.30 1010.18 1010.37 1010.35 1010.16 1010.28 1011.23 1011.24 1010.12 1007.62 1004.93 1003.27 1001.12 999.57 999.40 999.88 1000.61 1001.45 1002.90 1004.12
1005.03 1004.82 1005.81 1007.28 1008.64 1009.66 1009.50 1009.29 1008.81 1008.70 1008.91 1009.48 1009.47 1009.69 1009.78 1010.19 1010.44 1010.61 1009.89 1008.93 1009.04 1009.16 1010.11 1010.16 1010.54 1010.43 1010.24 1009.34 1009.17 1010.08 1010.12 1009.72 1009.37 1008.72 1006.73 1004.62 1001.94 999.97 999.37 999.18 999.89 1000.99 1001.49 1002.47 1003.83
1003.12 1004.44 1005.80 1006.91 1008.01 1008.70 1008.75 1008.46 1008.22 1008.48 1008.76 1009.00 1009.17 1009.13 1009.19 1009.42 1009.56 1009.70 1008.86 1007.84 1007.33 1007.96 1009.16 1009.10 1009.73 1009.38 1008.42 1007.49 1008.17 1008.65 1008.35 1008.79 1008.08 1007.71 1006.74 1005.10 1001.50 998.58 998.62 998.80 999.83 1000.91 1001.74 1002.91 1004.01
1003.31 1004.43 1005.49 1005.99 1006.99 1007.85 1008.01 1008.03 1008.01 1008.33 1008.35 1008.52 1008.44 1008.58 1008.46 1008.57 1008.68 1008.00 1007.25 1006.20 1006.56 1006.97 1007.34 1008.36 1008.45 1008.09 1007.14 1007.27 1007.56 1006.81 1007.21 1007.42 1007.49 1007.23 1006.24 1005.27 1001.71 999.63 998.77 999.44 1000.23 1000.98 1002.21 1003.30 1004.47
1002.50 1003.96 1005.32 1005.87 1006.27 1006.70 1007.37 1007.47 1007.63 1007.68 1007.80 1007.86 1007.76 1007.91 1007.95 1007.65 1007.27 1006.47 1006.36 1005.56 1005.63 1006.13 1006.94 1007.89 1007.44 1006.97 1005.91 1004.19 1004.06 1004.80 1005.53 1005.69 1006.20 1005.75 1005.02 1004.41 1003.25 1001.76 999.78 1000.01 1000.77 1001.64 1002.37 1003.33 1004.52
1002.25 1002.96 1003.56 1004.71 1005.47 1006.09 1006.73 1006.61 1006.81 1007.12 1007.35 1007.31 1007.37 1007.26 1006.94 1006.93 1006.21 1005.69 1005.55 1005.23 1005.52 1005.78 1006.71 1007.28 1006.69 1005.74 1004.52 1003.92 1003.92 1003.27 1003.41 1003.97 1004.47 1004.56 1005.13 1003.77 1003.44 1001.03 999.61 999.99 1000.66 1001.59 1002.66 1003.73 1004.81
1002.37 1002.27 1003.29 1003.92 1005.03 1005.57 1005.97 1005.91 1006.07 1006.24 1006.42 1006.45 1006.58 1006.06 1006.18 1005.92 1004.98 1004.78 1004.49 1004.54 1004.52 1005.74 1006.12 1006.59 1005.88 1004.90 1002.71 1001.09 1002.38 1001.95 1002.34 1002.94 1003.84 1004.84 1005.10 1004.96 1003.35 1000.47 1000.16 1000.40 1001.27 1001.85 1002.70 1003.71 1004.61
1002.14 1001.98 1002.55 1003.84 1004.50 1005.19 1005.05 1005.27 1005.36 1005.61 1005.57 1005.50 1005.59 1005.62 1005.08 1004.77 1004.31 1003.95 1003.73 1003.24 1003.39 1004.40 1005.59 1005.85 1005.10 1004.15 1002.77 1001.61 1001.39 1001.34 1000.94 1001.79 1002.78 1003.97 1004.55 1004.67 1002.66 1000.15 1000.45 1000.90 1001.51 1002.07 1002.66 1003.31 1004.13
Wind_Speed
8 7 7 6 4 4 4 3 3 5 5 5 5 5 1 5 4 3 5 8 5 2 4 5 3 6 1 2 2 2 2 6 9 9 10 3 3 6 5 4 2 3 5 5 5
9 9 8 7 6 4 3 3 2 4 5 5 4 4 6 4 4 9 10 11 11 5 2 2 2 6 3 3 3 5 7 10 7 10 8 3 5 4 3 4 2 1 3 6 6
11 10 9 8 6 4 3 3 2 2 3 4 3 4 2 4 3 7 14 23 18 6 4 1 0 0 2 3 5 5 11 7 5 10 8 6 3 6 6 5 6 3 2 2 4
12 11 10 9 7 5 3 2 1 2 2 3 2 2 0 1 7 2 5 5 17 10 5 2 2 4 3 5 5 8 7 8 3 6 5 3 4 6 5 7 6 6 5 3 8
13 12 11 10 9 7 5 3 2 1 1 2 3 0 1 3 8 4 1 5 3 8 9 6 5 4 5 4 4 6 5 10 9 12 15 13 12 10 9 10 8 8 7 7 8
14 14 12 11 9 8 6 5 4 2 1 1 1 1 1 6 6 4 4 2 1 3 5 7 6 6 4 6 6 5 6 7 11 13 9 17 19 6 12 9 9 8 10 9 8
16 15 13 12 11 9 8 7 6 4 2 2 1 2 3 12 3 3 4 5 4 5 3 6 6 2 1 4 4 5 8 9 7 4 6 9 23 19 10 8 9 9 10 8 9
14 16 14 13 12 11 10 8 6 4 2 4 3 1 8 5 10 8 4 5 5 4 3 4 5 6 4 5 6 3 3 4 4 8 5 7 27 9 9 9 11 11 11 8 9
16 14 15 14 13 11 11 8 7 5 4 3 2 3 9 6 3 8 5 4 3 2 4 7 2 3 3 4 4 4 5 6 4 6 5 14 26 14 10 8 10 10 10 8 7
17 14 15 15 13 11 9 9 5 1 3 3 2 1 4 5 3 4 5 6 3 1 3 2 2 2 2 6 14 10 6 6 5 4 7 16 21 9 8 9 12 14 9 8 10
17 18 17 15 13 11 10 5 2 2 5 7 7 4 3 2 3 2 5 5 2 1 5 1 4 11 13 13 7 5 6 7 4 4 7 13 18 17 13 12 10 12 8 8 9
17 16 17 16 15 15 7 4 4 3 2 12 10 12 7 5 2 3 8 6 7 11 5 4 13 12 8 10 9 11 12 15 8 9 10 10 16 16 17 19 14 16 9 9 6
19 17 19 17 15 10 5 6 6 2 1 4 5 6 6 7 7 6 13 6 6 12 14 17 6 13 13 12 10 16 17 10 9 10 18 13 22 14 16 17 13 14 8 10 17
21 17 19 17 8 5 7 6 6 3 2 4 3 2 3 4 5 15 14 9 6 15 12 14 16 8 12 15 11 16 10 12 11 7 8 3 13 9 13 18 14 18 9 14 13
17 18 24 20 8 8 6 11 7 1 3 5 4 3 3 6 3 1 10 15 13 9 8 8 8 19 20 17 14 9 8 9 8 8 8 18 11 10 12 13 19 23 12 16 18
12 23 26 7 4 5 9 13 4 4 9 7 4 4 3 5 3 2 4 8 1 15 16 8 1 8 9 15 14 3 7 4 3 4 11 18 12 13 13 16 12 13 13 15 17
13 27 22 10 8 12 11 6 4 5 2 7 5 5 7 7 7 8 8 8 6 8 8 5 17 5 3 5 11 10 4 3 3 7 11 6 13 21 9 11 15 18 14 14 17
20 29 18 7 14 15 5 3 4 5 5 3 4 8 8 7 6 8 5 8 14 7 2 8 5 17 10 11 5 15 14 5 7 4 6 8 12 8 16 26 17 10 15 18 18
24 13 9 9 16 8 7 4 7 6 6 9 5 6 6 6 4 9 9 9 10 15 9 5 4 4 7 10 13 5 11 20 7 5 6 7 4 9 13 10 9 16 19 21 20
5 9 9 19 16 7 5 4 4 4 7 5 7 9 7 6 10 8 7 5 10 16 9 6 3 6 5 6 7 8 5 5 4 7 6 4 6 11 14 13 8 15 19 18 17
8 8 12 18 11 7 4 6 4 5 7 7 6 6 7 5 8 5 7 5 11 15 20 7 5 2 4 10 12 7 12 7 8 8 3 4 7 10 13 10 14 14 18 21 19
2 5 14 15 6 4 4 6 5 5 2 3 4 7 9 9 7 7 10 9 11 8 14 12 5 9 19 4 10 19 21 19 7 7 9 6 9 3 9 13 16 16 15 15 16
8 4 10 11 6 7 4 4 4 6 9 7 9 10 12 6 6 11 7 9 9 12 9 10 6 5 5 8 13 13 19 20 15 5 7 5 8 7 6 8 10 15 13 14 15
4 6 4 4 4 6 10 6 7 6 9 8 5 13 8 7 10 4 8 5 13 8 14 12 4 7 9 4 10 9 24 22 22 11 8 10 17 22 6 10 8 9 13 15 15
2 3 5 9 8 10 11 6 11 8 8 10 4 11 8 6 8 11 8 2 6 11 11 8 6 10 15 18 13 17 24 22 22 6 8 8 15 15 9 12 12 11 12 14 15
2 4 3 8 10 7 12 10 11 8 7 7 9 10 16 12 6 1 5 5 7 12 9 5 6 4 7 10 16 16 20 17 14 5 5 22 28 5 4 7 8 14 16 16 15
3 3 5 10 10 8 5 7 10 6 9 12 14 11 8 17 14 9 8 8 9 11 10 4 4 4 6 5 8 6 18 20 13 12 15 14 25 5 4 6 8 10 15 17 17
Wind_Direction
249 256 262 270 282 293 296 294 326 347 359 8 30 29 329 224 210 211 232 232 190 103 351 317 3 351 37 228 231 141 193 213 212 197 236 280 332 317 306 143 178 125 157 239 159
237 243 251 255 260 266 290 298 346 359 358 353 5 55 71 80 230 237 238 241 247 248 63 62 340 360 333 240 218 178 215 215 202 215 237 215 199 269 327 321 276 12 4 67 114
233 235 240 246 251 250 257 310 351 18 356 357 6 30 80 156 253 238 243 240 236 208 140 156 295 122 231 218 226 222 238 224 241 225 233 271 277 245 210 221 219 205 147 129 173
227 233 232 243 236 236 225 251 342 7 353 19 19 57 236 185 227 257 286 305 210 205 152 200 210 163 223 223 230 255 245 239 251 273 284 246 284 292 255 232 202 214 183 201 204
221 228 233 233 231 219 223 219 234 211 8 7 32 258 188 197 244 268 10 47 64 170 189 192 194 172 198 218 282 248 266 254 261 254 268 276 263 255 253 253 253 265 271 239 255
226 221 225 231 235 213 216 213 220 221 238 309 320 161 200 241 233 234 256 347 210 137 190 187 213 212 252 230 238 290 301 289 261 263 259 255 269 233 267 240 241 250 265 267 271
227 221 214 217 223 216 214 215 215 214 205 233 195 249 254 238 214 71 20 228 201 190 197 212 230 283 89 289 318 274 301 300 243 241 272 270 270 250 249 260 243 251 258 263 257
235 224 205 209 214 215 215 215 212 182 211 220 182 158 249 250 241 281 288 308 221 234 195 235 213 224 220 294 336 342 267 248 198 193 222 195 261 252 234 220 237 244 256 256 238
226 229 205 198 206 211 207 208 169 184 230 211 139 163 263 299 221 219 179 217 177 213 241 245 223 217 346 218 275 241 260 260 281 208 220 207 261 243 246 221 243 247 248 245 231
227 212 202 194 197 201 209 163 155 111 247 236 241 231 255 231 207 185 157 174 233 48 308 186 126 171 138 195 226 228 243 251 223 321 217 255 267 264 268 228 230 247 238 231 204
225 213 203 190 188 179 133 103 95 226 229 201 184 223 256 214 125 193 157 115 153 143 196 226 196 217 224 223 248 299 271 257 357 318 313 269 271 257 251 255 236 245 243 214 214
224 213 200 186 179 162 135 186 206 155 253 235 240 234 274 352 272 199 124 163 177 221 156 258 239 226 231 229 238 252 268 269 288 259 270 276 281 277 250 245 234 238 230 210 169
231 211 187 175 165 158 178 201 146 115 235 234 224 221 226 208 224 213 164 181 195 216 214 225 236 230 216 224 223 237 242 257 264 303 285 285 282 264 255 248 246 244 213 187 182
245 210 167 145 135 144 203 170 133 101 272 208 219 236 201 174 255 214 193 175 220 215 224 240 227 248 207 223 216 244 208 241 259 275 263 38 280 255 240 238 236 244 188 190 185
254 194 153 156 143 173 188 149 124 63 355 170 153 341 152 192 139 263 209 202 211 195 175 210 208 221 238 234 211 243 217 225 236 251 268 256 268 263 231 239 225 230 195 195 183
289 178 160 155 123 140 127 131 97 48 252 166 127 178 174 199 201 112 171 229 359 227 229 221 65 213 218 226 214 145 227 269 302 286 242 243 224 252 230 229 230 225 200 192 178
290 169 162 165 163 145 138 124 96 165 193 163 169 186 199 196 210 191 183 211 217 202 209 194 225 265 232 178 209 210 152 259 228 202 240 182 209 241 253 242 220 217 194 181 169
306 166 176 157 139 143 144 129 177 194 167 124 141 182 197 195 218 206 225 221 232 217 271 205 217 196 193 219 173 199 196 201 208 213 254 162 241 236 221 242 242 237 197 163 162
302 165 161 153 147 142 153 186 211 191 140 158 149 198 210 213 222 205 227 232 225 198 202 202 249 176 203 190 185 192 204 218 312 253 254 232 269 279 254 253 228 226 166 171 159
243 168 166 153 145 137 175 230 207 122 120 142 191 182 196 189 192 194 211 220 219 190 199 192 252 202 155 172 232 222 140 146 193 236 234 252 261 242 213 214 164 163 165 161 154
272 159 149 147 140 162 194 218 190 148 137 182 198 212 215 182 193 190 244 244 206 190 193 173 182 154 141 194 195 191 226 233 173 229 278 257 238 214 240 190 170 176 165 160 159
159 153 154 148 145 161 183 181 155 145 173 175 221 220 206 186 189 211 223 232 188 157 180 203 197 217 225 185 203 219 218 215 206 202 239 313 281 250 225 174 165 176 165 157 152
146 112 158 160 151 177 158 185 154 169 186 205 212 214 207 212 223 195 215 212 170 173 188 169 214 248 250 194 196 211 207 198 230 135 235 220 265 3 120 123 166 152 147 148 143
105 144 122 191 148 137 185 197 191 201 228 207 220 226 207 229 234 262 227 226 180 163 153 169 238 229 238 6 145 182 198 193 211 224 215 248 292 292 150 140 135 141 144 148 153
136 125 126 174 173 173 183 190 191 201 211 204 232 231 213 228 221 235 233 131 176 160 158 179 244 230 247 241 241 185 189 195 215 221 209 280 280 238 172 170 168 149 139 145 156
158 137 112 160 155 154 177 195 209 193 194 190 224 223 215 231 206 189 210 189 195 169 183 186 272 246 276 215 201 201 181 183 182 150 249 252 270 273 89 101 134 155 156 164 168
239 39 132 149 172 178 200 209 220 215 207 215 213 248 243 225 245 246 244 247 165 161 182 228 270 315 356 132 142 153 185 185 194 198 205 229 246 189 161 152 158 158 168 171 172